Location: Alladorf
(49.9620°N, 11.3790°E)
Time: 21:12:02
(UTC+00:00)

Meteor 1-31 Rocket - Pass Details

Date: 29 November 2020
Orbit: 520 x 546 km, 97.6° (Epoch: 24 January)

Event Time Altitude Azimuth Distance (km) Brightness Sun altitude
Rises 03:59:51 0° 16° (NNE) 2,696 6.5 -26.3°
Reaches altitude 10° 04:02:00 10° 20° (NNE) 1,795 5.6 -26.0°
Enters shadow 04:05:00 46° 50° (NE) 717 3.6 -25.5°
